Location: Monfort
(47.1967°N, 0.2115°W)
Time: 03:48:15
(UTC+00:00)

Timation 2 Rocket - Pass Details

Date: 24 October 2020
Orbit: 904 x 1077 km, 70.0° (Epoch: 01 December)

Event Time Altitude Azimuth Distance (km) Brightness Sun altitude
Rises 18:33:58 0° 329° (NNW) 3,728 7.5 -17.1°
Reaches altitude 10° 18:36:30 10° 328° (NNW) 2,799 6.8 -17.6°
Maximum altitude 18:43:04 74° 245° (WSW) 1,085 4.3 -18.7°
Drops below altitude 10° 18:49:49 10° 162° (SSE) 2,884 6.2 -19.8°
Sets 18:52:28 0° 161° (SSE) 3,847 6.9 -20.3°
